Time,TemperatureF,DewpointF,PressureIn,WindDirection,WindDirectionDegrees,WindSpeedMPH,WindSpeedGustMPH,Humidity,HourlyPrecipIn,Conditions,Clouds,dailyrainin,SolarRadiationWatts/m^2,SoftwareType,DateUTC
2013-02-22 00:00:00,17.6,11.9,30.19,West,281,0.0,2.0,78,0.00,,---,0.00,0.00,VWS V14.01,2013-02-22 05:00:00,
2013-02-22 00:05:00,17.4,11.7,30.20,West,281,0.0,2.0,78,0.00,,---,0.00,0.00,VWS V14.01,2013-02-22 05:05:00,
2013-02-22 00:10:00,17.4,12.3,30.20,West,281,0.0,2.0,80,0.00,,---,0.00,0.00,VWS V14.01,2013-02-22 05:10:00,
2013-02-22 00:15:00,17.6,12.2,30.21,West,281,0.0,2.0,79,0.00,,---,0.00,0.00,VWS V14.01,2013-02-22 05:15:00,
2013-02-22 00:20:00,17.9,12.5,30.22,West,281,0.0,0.0,79,0.00,,---,0.00,0.00,VWS V14.01,2013-02-22 05:20:00,
2013-02-22 00:25:00,17.6,11.9,30.22,West,281,0.0,0.0,78,0.00,,---,0.00,0.00,VWS V14.01,2013-02-22 05:25:00,
2013-02-22 00:30:00,17.6,12.2,30.23,West,281,2.0,2.0,79,0.00,,---,0.00,0.00,VWS V14.01,2013-02-22 05:30:00,
2013-02-22 00:35:00,17.6,12.2,30.23,WNW,282,2.0,2.0,79,0.00,,---,0.00,0.00,VWS V14.01,2013-02-22 05:35:00,
2013-02-22 00:40:00,17.9,12.8,30.24,WNW,282,0.0,2.0,80,0.00,,---,0.00,0.00,VWS V14.01,2013-02-22 05:40:00,
2013-02-22 00:45:00,18.5,13.4,30.23,WNW,282,2.0,2.0,80,0.00,,---,0.00,0.00,VWS V14.01,2013-02-22 05:45:00,
2013-02-22 00:50:00,19.0,13.9,30.24,WNW,284,1.0,2.0,80,0.00,,---,0.00,0.00,VWS V14.01,2013-02-22 05:50:00,
2013-02-22 00:55:00,19.1,14.0,30.24,WNW,284,2.0,2.0,80,0.00,,---,0.00,0.00,VWS V14.01,2013-02-22 05:55:00,
2013-02-22 01:00:00,19.1,13.7,30.24,WNW,284,0.0,2.0,79,0.00,,---,0.00,0.00,VWS V14.01,2013-02-22 06:00:00,
2013-02-22 01:05:00,19.1,13.7,30.24,WNW,284,1.0,1.0,79,0.00,,---,0.00,0.00,VWS V14.01,2013-02-22 06:05:00,
2013-02-22 01:10:00,19.1,14.0,30.24,WNW,284,0.0,1.0,80,0.00,,---,0.00,0.00,VWS V14.01,2013-02-22 06:10:00,
2013-02-22 01:15:00,19.0,13.9,30.24,WNW,284,0.0,1.0,80,0.00,,---,0.00,0.00,VWS V14.01,2013-02-22 06:15:00,
2013-02-22 01:20:00,18.8,13.7,30.24,WNW,284,0.0,0.0,80,0.00,,---,0.00,0.00,VWS V14.01,2013-02-22 06:20:00,
2013-02-22 01:25:00,18.7,13.9,30.24,WNW,284,0.0,0.0,81,0.00,,---,0.00,0.00,VWS V14.01,2013-02-22 06:25:00,
2013-02-22 01:30:00,18.3,13.5,30.24,WNW,284,0.0,0.0,81,0.00,,---,0.00,0.00,VWS V14.01,2013-02-22 06:30:00,
2013-02-22 01:35:00,17.9,13.1,30.24,West,278,0.0,0.0,81,0.00,,---,0.00,0.00,VWS V14.01,2013-02-22 06:35:00,
2013-02-22 01:40:00,17.9,13.4,30.25,West,278,1.0,1.0,82,0.00,,---,0.00,0.00,VWS V14.01,2013-02-22 06:40:00,
2013-02-22 01:45:00,17.9,13.6,30.24,West,279,0.0,1.0,83,0.00,,---,0.00,0.00,VWS V14.01,2013-02-22 06:45:00,
2013-02-22 01:50:00,18.0,13.4,30.24,West,279,0.0,0.0,82,0.00,,---,0.00,0.00,VWS V14.01,2013-02-22 06:50:00,
2013-02-22 01:55:00,17.9,13.4,30.25,West,279,0.0,0.0,82,0.00,,---,0.00,0.00,VWS V14.01,2013-02-22 06:55:00,
2013-02-22 02:00:00,17.6,13.1,30.24,West,279,0.0,0.0,82,0.00,,---,0.00,0.00,VWS V14.01,2013-02-22 07:00:00,
2013-02-22 02:05:00,17.7,13.4,30.24,West,279,0.0,0.0,83,0.00,,---,0.00,0.00,VWS V14.01,2013-02-22 07:05:00,
2013-02-22 02:10:00,18.0,13.4,30.24,West,279,0.0,0.0,82,0.00,,---,0.00,0.00,VWS V14.01,2013-02-22 07:10:00,
2013-02-22 02:15:00,17.9,13.6,30.24,West,279,0.0,0.0,83,0.00,,---,0.00,0.00,VWS V14.01,2013-02-22 07:15:00,
2013-02-22 02:20:00,17.7,13.1,30.23,West,277,0.0,1.0,82,0.00,,---,0.00,0.00,VWS V14.01,2013-02-22 07:20:00,
2013-02-22 02:25:00,17.7,13.4,30.23,West,277,0.0,1.0,83,0.00,,---,0.00,0.00,VWS V14.01,2013-02-22 07:25:00,
2013-02-22 02:30:00,17.7,13.4,30.23,West,277,0.0,1.0,83,0.00,,---,0.00,0.00,VWS V14.01,2013-02-22 07:30:00,
2013-02-22 02:35:00,18.0,13.7,30.24,West,277,0.0,0.0,83,0.00,,---,0.00,0.00,VWS V14.01,2013-02-22 07:35:00,
2013-02-22 02:40:00,18.2,13.9,30.24,West,277,0.0,0.0,83,0.00,,---,0.00,0.00,VWS V14.01,2013-02-22 07:40:00,
2013-02-22 02:45:00,18.0,13.4,30.24,West,277,0.0,0.0,82,0.00,,---,0.00,0.00,VWS V14.01,2013-02-22 07:45:00,
2013-02-22 02:50:00,17.9,13.6,30.24,West,277,0.0,0.0,83,0.00,,---,0.00,0.00,VWS V14.01,2013-02-22 07:50:00,
2013-02-22 02:55:00,18.0,13.7,30.24,West,277,0.0,0.0,83,0.00,,---,0.00,0.00,VWS V14.01,2013-02-22 07:55:00,
2013-02-22 03:00:00,18.0,13.7,30.24,WNW,287,0.0,1.0,83,0.00,,---,0.00,0.00,VWS V14.01,2013-02-22 08:00:00,
2013-02-22 03:05:00,18.3,14.0,30.25,WNW,287,0.0,0.0,83,0.00,,---,0.00,0.00,VWS V14.01,2013-02-22 08:05:00,
2013-02-22 03:10:00,18.3,13.7,30.25,WNW,287,0.0,0.0,82,0.00,,---,0.00,0.00,VWS V14.01,2013-02-22 08:10:00,
2013-02-22 03:15:00,17.9,13.4,30.26,WNW,287,0.0,0.0,82,0.00,,---,0.00,0.00,VWS V14.01,2013-02-22 08:15:00,
2013-02-22 03:20:00,17.7,13.4,30.26,WNW,286,0.0,0.0,83,0.00,,---,0.00,0.00,VWS V14.01,2013-02-22 08:20:00,
2013-02-22 03:25:00,17.4,12.9,30.26,WNW,286,0.0,0.0,82,0.00,,---,0.00,0.00,VWS V14.01,2013-02-22 08:25:00,
2013-02-22 03:30:00,17.2,12.9,30.26,WNW,286,0.0,0.0,83,0.00,,---,0.00,0.00,VWS V14.01,2013-02-22 08:30:00,
2013-02-22 03:35:00,16.9,12.6,30.26,WNW,286,0.0,0.0,83,0.00,,---,0.00,0.00,VWS V14.01,2013-02-22 08:35:00,
2013-02-22 03:40:00,16.6,12.4,30.26,WNW,286,0.0,0.0,83,0.00,,---,0.00,0.00,VWS V14.01,2013-02-22 08:40:00,
2013-02-22 03:45:00,16.4,12.4,30.26,WNW,286,0.0,0.0,84,0.00,,---,0.00,0.00,VWS V14.01,2013-02-22 08:45:00,
2013-02-22 03:50:00,16.1,12.1,30.27,WNW,286,0.0,0.0,84,0.00,,---,0.00,0.00,VWS V14.01,2013-02-22 08:50:00,
2013-02-22 03:55:00,16.1,12.1,30.27,WNW,286,0.0,0.0,84,0.00,,---,0.00,0.00,VWS V14.01,2013-02-22 08:55:00,
2013-02-22 04:01:00,15.8,12.1,30.27,WNW,286,0.0,0.0,85,0.00,,---,0.00,0.00,VWS V14.01,2013-02-22 09:01:00,
2013-02-22 04:06:00,15.8,12.1,30.27,WNW,286,0.0,0.0,85,0.00,,---,0.00,0.00,VWS V14.01,2013-02-22 09:06:00,
2013-02-22 04:11:00,15.8,12.4,30.27,WNW,286,0.0,0.0,86,0.00,,---,0.00,0.00,VWS V14.01,2013-02-22 09:11:00,
2013-02-22 04:16:00,15.6,12.2,30.27,WNW,286,0.0,0.0,86,0.00,,---,0.00,0.00,VWS V14.01,2013-02-22 09:16:00,
2013-02-22 04:21:00,15.6,12.2,30.27,WNW,286,0.0,0.0,86,0.00,,---,0.00,0.00,VWS V14.01,2013-02-22 09:21:00,
2013-02-22 04:26:00,15.5,12.1,30.27,WNW,286,0.0,0.0,86,0.00,,---,0.00,0.00,VWS V14.01,2013-02-22 09:26:00,
2013-02-22 04:31:00,15.6,12.4,30.27,WNW,286,0.0,0.0,87,0.00,,---,0.00,0.00,VWS V14.01,2013-02-22 09:31:00,
2013-02-22 04:36:00,15.6,12.2,30.26,WNW,286,0.0,0.0,86,0.00,,---,0.00,0.00,VWS V14.01,2013-02-22 09:36:00,
2013-02-22 04:41:00,15.5,12.3,30.27,WNW,286,0.0,0.0,87,0.00,,---,0.00,0.00,VWS V14.01,2013-02-22 09:41:00,
2013-02-22 04:46:00,15.8,12.6,30.27,WNW,286,0.0,0.0,87,0.00,,---,0.00,0.00,VWS V14.01,2013-02-22 09:46:00,
2013-02-22 04:51:00,15.8,12.6,30.27,WNW,286,0.0,0.0,87,0.00,,---,0.00,0.00,VWS V14.01,2013-02-22 09:51:00,
2013-02-22 04:56:00,15.8,12.6,30.27,WNW,286,0.0,0.0,87,0.00,,---,0.00,0.00,VWS V14.01,2013-02-22 09:56:00,
2013-02-22 05:01:00,15.8,12.6,30.27,WNW,286,0.0,0.0,87,0.00,,---,0.00,0.00,VWS V14.01,2013-02-22 10:01:00,
2013-02-22 05:06:00,15.5,12.3,30.27,WNW,286,0.0,0.0,87,0.00,,---,0.00,0.00,VWS V14.01,2013-02-22 10:06:00,
2013-02-22 05:11:00,15.5,12.6,30.28,WNW,286,0.0,0.0,88,0.00,,---,0.00,0.00,VWS V14.01,2013-02-22 10:11:00,
2013-02-22 05:16:00,15.5,12.6,30.28,WNW,286,0.0,0.0,88,0.00,,---,0.00,0.00,VWS V14.01,2013-02-22 10:16:00,
2013-02-22 05:21:00,15.6,12.7,30.28,WNW,286,0.0,0.0,88,0.00,,---,0.00,0.00,VWS V14.01,2013-02-22 10:21:00,
2013-02-22 05:26:00,15.6,12.7,30.28,WNW,286,0.0,0.0,88,0.00,,---,0.00,0.00,VWS V14.01,2013-02-22 10:26:00,
2013-02-22 05:31:00,15.5,12.6,30.28,WNW,286,0.0,0.0,88,0.00,,---,0.00,0.00,VWS V14.01,2013-02-22 10:31:00,
2013-02-22 05:36:00,15.8,12.9,30.28,WNW,286,0.0,0.0,88,0.00,,---,0.00,0.00,VWS V14.01,2013-02-22 10:36:00,
2013-02-22 05:41:00,15.5,12.6,30.28,WNW,286,0.0,0.0,88,0.00,,---,0.00,0.00,VWS V14.01,2013-02-22 10:41:00,
2013-02-22 05:46:00,15.0,11.8,30.29,WNW,286,0.0,0.0,87,0.00,,---,0.00,0.00,VWS V14.01,2013-02-22 10:46:00,
2013-02-22 05:51:00,15.1,12.2,30.29,WNW,286,0.0,0.0,88,0.00,,---,0.00,0.00,VWS V14.01,2013-02-22 10:51:00,
2013-02-22 05:56:00,15.1,12.2,30.29,WNW,286,0.0,0.0,88,0.00,,---,0.00,0.00,VWS V14.01,2013-02-22 10:56:00,
2013-02-22 06:01:00,15.0,12.1,30.30,WNW,286,0.0,0.0,88,0.00,,---,0.00,0.00,VWS V14.01,2013-02-22 11:01:00,
2013-02-22 06:06:00,15.1,12.2,30.31,WNW,286,0.0,0.0,88,0.00,,---,0.00,0.00,VWS V14.01,2013-02-22 11:06:00,
2013-02-22 06:11:00,15.0,12.1,30.31,WNW,286,0.0,0.0,88,0.00,,---,0.00,0.00,VWS V14.01,2013-02-22 11:11:00,
2013-02-22 06:16:00,15.3,12.4,30.32,WNW,286,0.0,0.0,88,0.00,,---,0.00,0.00,VWS V14.01,2013-02-22 11:16:00,
2013-02-22 06:21:00,15.1,12.2,30.33,WNW,286,0.0,0.0,88,0.00,,---,0.00,0.00,VWS V14.01,2013-02-22 11:21:00,
2013-02-22 06:26:00,14.8,11.9,30.33,WNW,286,0.0,0.0,88,0.00,,---,0.00,0.00,VWS V14.01,2013-02-22 11:26:00,
2013-02-22 06:31:00,15.3,12.4,30.33,WNW,286,0.0,0.0,88,0.00,,---,0.00,0.00,VWS V14.01,2013-02-22 11:31:00,
2013-02-22 06:36:00,15.6,12.7,30.34,WNW,286,0.0,0.0,88,0.00,,---,0.00,0.00,VWS V14.01,2013-02-22 11:36:00,
2013-02-22 06:41:00,15.8,12.9,30.34,WNW,286,0.0,0.0,88,0.00,,---,0.00,5.00,VWS V14.01,2013-02-22 11:41:00,
2013-02-22 06:46:00,15.6,12.7,30.35,WNW,286,0.0,0.0,88,0.00,,---,0.00,7.00,VWS V14.01,2013-02-22 11:46:00,
2013-02-22 06:51:00,15.6,12.7,30.35,WNW,286,0.0,1.0,88,0.00,,---,0.00,9.00,VWS V14.01,2013-02-22 11:51:00,
2013-02-22 06:56:00,15.5,12.6,30.36,WNW,286,1.0,1.0,88,0.00,,---,0.00,11.00,VWS V14.01,2013-02-22 11:56:00,
2013-02-22 07:01:00,15.8,12.9,30.36,WNW,286,0.0,1.0,88,0.00,,---,0.00,12.00,VWS V14.01,2013-02-22 12:01:00,
2013-02-22 07:06:00,16.6,13.7,30.36,WNW,286,0.0,0.0,88,0.00,,---,0.00,16.00,VWS V14.01,2013-02-22 12:06:00,
2013-02-22 07:11:00,16.9,14.0,30.36,WNW,286,0.0,0.0,88,0.00,,---,0.00,18.00,VWS V14.01,2013-02-22 12:11:00,
2013-02-22 07:16:00,17.1,14.2,30.36,WNW,286,0.0,0.0,88,0.00,,---,0.00,19.00,VWS V14.01,2013-02-22 12:16:00,
2013-02-22 07:21:00,17.2,14.3,30.36,WNW,286,0.0,0.0,88,0.00,,---,0.00,23.00,VWS V14.01,2013-02-22 12:21:00,
2013-02-22 07:26:00,16.9,13.7,30.36,WNW,286,0.0,0.0,87,0.00,,---,0.00,26.00,VWS V14.01,2013-02-22 12:26:00,
2013-02-22 07:31:00,17.2,14.3,30.36,WNW,286,0.0,0.0,88,0.00,,---,0.00,30.00,VWS V14.01,2013-02-22 12:31:00,
2013-02-22 07:36:00,17.1,13.9,30.36,WNW,286,0.0,0.0,87,0.00,,---,0.00,28.00,VWS V14.01,2013-02-22 12:36:00,
2013-02-22 07:41:00,17.2,14.0,30.37,WNW,286,0.0,0.0,87,0.00,,---,0.00,30.00,VWS V14.01,2013-02-22 12:41:00,
2013-02-22 07:46:00,17.7,14.5,30.37,WNW,286,0.0,0.0,87,0.00,,---,0.00,32.00,VWS V14.01,2013-02-22 12:46:00,
2013-02-22 07:51:00,17.9,14.7,30.38,WNW,286,0.0,0.0,87,0.00,,---,0.00,39.00,VWS V14.01,2013-02-22 12:51:00,
2013-02-22 07:56:00,18.2,15.0,30.38,WNW,286,0.0,0.0,87,0.00,,---,0.00,33.00,VWS V14.01,2013-02-22 12:56:00,
2013-02-22 08:01:00,18.5,15.0,30.38,WNW,286,0.0,0.0,86,0.00,,---,0.00,35.00,VWS V14.01,2013-02-22 13:01:00,
2013-02-22 08:06:00,19.3,15.8,30.38,WNW,286,0.0,0.0,86,0.00,,---,0.00,39.00,VWS V14.01,2013-02-22 13:06:00,
2013-02-22 08:11:00,20.4,16.9,30.38,WNW,286,0.0,0.0,86,0.00,,---,0.00,39.00,VWS V14.01,2013-02-22 13:11:00,
2013-02-22 08:16:00,21.0,16.9,30.38,WNW,286,0.0,0.0,84,0.00,,---,0.00,42.00,VWS V14.01,2013-02-22 13:16:00,
2013-02-22 08:21:00,21.5,17.1,30.38,WNW,286,0.0,0.0,83,0.00,,---,0.00,58.00,VWS V14.01,2013-02-22 13:21:00,
2013-02-22 08:26:00,22.0,17.1,30.38,WNW,286,0.0,0.0,81,0.00,,---,0.00,44.00,VWS V14.01,2013-02-22 13:26:00,
2013-02-22 08:31:00,22.3,17.4,30.38,WNW,286,0.0,0.0,81,0.00,,---,0.00,49.00,VWS V14.01,2013-02-22 13:31:00,
2013-02-22 08:36:00,22.4,17.2,30.38,WNW,286,0.0,0.0,80,0.00,,---,0.00,53.00,VWS V14.01,2013-02-22 13:36:00,
2013-02-22 08:41:00,22.4,17.2,30.37,WNW,286,0.0,0.0,80,0.00,,---,0.00,70.00,VWS V14.01,2013-02-22 13:41:00,
2013-02-22 08:46:00,22.8,17.3,30.37,WNW,286,0.0,0.0,79,0.00,,---,0.00,91.00,VWS V14.01,2013-02-22 13:46:00,
2013-02-22 08:51:00,23.4,17.6,30.37,WNW,286,0.0,0.0,78,0.00,,---,0.00,134.00,VWS V14.01,2013-02-22 13:51:00,
2013-02-22 08:56:00,23.8,17.4,30.37,NE,39,0.0,2.0,76,0.00,,---,0.00,76.00,VWS V14.01,2013-02-22 13:56:00,
2013-02-22 09:01:00,24.0,17.9,30.37,NE,41,0.0,2.0,77,0.00,,---,0.00,137.00,VWS V14.01,2013-02-22 14:01:00,
2013-02-22 09:06:00,24.1,17.3,30.37,NE,41,0.0,1.0,75,0.00,,---,0.00,155.00,VWS V14.01,2013-02-22 14:06:00,
2013-02-22 09:11:00,24.7,17.9,30.37,NE,40,0.0,1.0,75,0.00,,---,0.00,111.00,VWS V14.01,2013-02-22 14:11:00,
2013-02-22 09:16:00,25.0,17.9,30.37,NE,40,0.0,1.0,74,0.00,,---,0.00,221.00,VWS V14.01,2013-02-22 14:16:00,
2013-02-22 09:21:00,25.7,17.9,30.37,NE,40,0.0,0.0,72,0.00,,---,0.00,125.00,VWS V14.01,2013-02-22 14:21:00,
2013-02-22 09:26:00,26.2,17.8,30.36,NE,40,0.0,0.0,70,0.00,,---,0.00,197.00,VWS V14.01,2013-02-22 14:26:00,
2013-02-22 09:31:00,26.8,18.3,30.36,NE,39,0.0,0.0,70,0.00,,---,0.00,323.00,VWS V14.01,2013-02-22 14:31:00,
2013-02-22 09:36:00,27.5,18.0,30.36,NE,40,0.0,0.0,67,0.00,,---,0.00,348.00,VWS V14.01,2013-02-22 14:36:00,
2013-02-22 09:41:00,28.0,18.8,30.37,NNE,17,0.0,1.0,68,0.00,,---,0.00,355.00,VWS V14.01,2013-02-22 14:41:00,
2013-02-22 09:46:00,28.7,18.8,30.36,NNE,17,0.0,1.0,66,0.00,,---,0.00,425.00,VWS V14.01,2013-02-22 14:46:00,
2013-02-22 09:51:00,29.0,18.4,30.37,NNW,342,0.0,2.0,64,0.00,,---,0.00,475.00,VWS V14.01,2013-02-22 14:51:00,
2013-02-22 09:56:00,28.9,18.6,30.36,WNW,290,0.0,2.0,65,0.00,,---,0.00,503.00,VWS V14.01,2013-02-22 14:56:00,
2013-02-22 10:01:00,29.0,19.4,30.36,WNW,291,0.0,2.0,67,0.00,,---,0.00,517.00,VWS V14.01,2013-02-22 15:01:00,
2013-02-22 10:06:00,29.7,18.7,30.36,WNW,292,0.0,0.0,63,0.00,,---,0.00,487.00,VWS V14.01,2013-02-22 15:06:00,
2013-02-22 10:11:00,30.3,19.6,30.36,WNW,291,0.0,2.0,64,0.00,,---,0.00,561.00,VWS V14.01,2013-02-22 15:11:00,
2013-02-22 10:16:00,31.4,18.7,30.36,WNW,293,0.0,2.0,59,0.00,,---,0.00,499.00,VWS V14.01,2013-02-22 15:16:00,
2013-02-22 10:21:00,32.0,18.1,30.36,WSW,255,0.0,2.0,56,0.00,,---,0.00,592.00,VWS V14.01,2013-02-22 15:21:00,
2013-02-22 10:26:00,32.7,19.6,30.36,West,271,0.0,3.0,58,0.00,,---,0.00,540.00,VWS V14.01,2013-02-22 15:26:00,
2013-02-22 10:31:00,32.3,18.0,30.36,ENE,69,0.0,4.0,55,0.00,,---,0.00,584.00,VWS V14.01,2013-02-22 15:31:00,
2013-02-22 10:36:00,32.7,19.2,30.36,ENE,67,1.0,4.0,57,0.00,,---,0.00,649.00,VWS V14.01,2013-02-22 15:36:00,
2013-02-22 10:41:00,32.1,17.8,30.36,ESE,102,1.0,4.0,55,0.00,,---,0.00,640.00,VWS V14.01,2013-02-22 15:41:00,
2013-02-22 10:46:00,33.7,18.4,30.36,NNE,25,0.0,4.0,53,0.00,,---,0.00,468.00,VWS V14.01,2013-02-22 15:46:00,
2013-02-22 10:51:00,33.1,17.4,30.36,NE,44,2.0,4.0,52,0.00,,---,0.00,664.00,VWS V14.01,2013-02-22 15:51:00,
2013-02-22 10:56:00,34.2,19.3,30.35,NE,38,3.0,4.0,54,0.00,,---,0.00,663.00,VWS V14.01,2013-02-22 15:56:00,
2013-02-22 11:01:00,33.6,18.3,30.35,NNW,332,0.0,4.0,53,0.00,,---,0.00,452.00,VWS V14.01,2013-02-22 16:01:00,
2013-02-22 11:06:00,33.9,17.7,30.35,NNW,343,0.0,1.0,51,0.00,,---,0.00,613.00,VWS V14.01,2013-02-22 16:06:00,
2013-02-22 11:11:00,34.2,18.9,30.35,ENE,62,0.0,1.0,53,0.00,,---,0.00,617.00,VWS V14.01,2013-02-22 16:11:00,
2013-02-22 11:16:00,34.6,17.9,30.35,NNW,338,0.0,3.0,50,0.00,,---,0.00,694.00,VWS V14.01,2013-02-22 16:16:00,
2013-02-22 11:21:00,34.9,19.5,30.34,NNW,332,0.0,2.0,53,0.00,,---,0.00,668.00,VWS V14.01,2013-02-22 16:21:00,
2013-02-22 11:26:00,35.2,17.0,30.34,NE,40,3.0,5.0,47,0.00,,---,0.00,689.00,VWS V14.01,2013-02-22 16:26:00,
2013-02-22 11:31:00,35.7,18.9,30.34,North,355,0.0,5.0,50,0.00,,---,0.00,504.00,VWS V14.01,2013-02-22 16:31:00,
2013-02-22 11:36:00,35.5,19.2,30.34,ENE,72,0.0,3.0,51,0.00,,---,0.00,606.00,VWS V14.01,2013-02-22 16:36:00,
2013-02-22 11:41:00,35.4,17.7,30.34,North,9,6.0,6.0,48,0.00,,---,0.00,425.00,VWS V14.01,2013-02-22 16:41:00,
2013-02-22 11:46:00,34.5,16.9,30.34,NNE,24,0.0,6.0,48,0.00,,---,0.00,487.00,VWS V14.01,2013-02-22 16:46:00,
2013-02-22 11:51:00,33.7,16.6,30.33,NE,53,0.0,0.0,49,0.00,,---,0.00,441.00,VWS V14.01,2013-02-22 16:51:00,
2013-02-22 11:56:00,34.3,17.6,30.33,NE,42,0.0,2.0,50,0.00,,---,0.00,258.00,VWS V14.01,2013-02-22 16:56:00,
2013-02-22 12:02:00,34.6,16.5,30.33,NNE,29,0.0,2.0,47,0.00,,---,0.00,645.00,VWS V14.01,2013-02-22 17:02:00,
2013-02-22 12:07:00,35.5,18.2,30.33,NE,51,1.0,1.0,49,0.00,,---,0.00,619.00,VWS V14.01,2013-02-22 17:07:00,
2013-02-22 12:12:00,36.5,19.6,30.33,NE,42,1.0,3.0,50,0.00,,---,0.00,577.00,VWS V14.01,2013-02-22 17:12:00,
2013-02-22 12:17:00,36.9,19.1,30.33,NNE,19,0.0,0.0,48,0.00,,---,0.00,633.00,VWS V14.01,2013-02-22 17:17:00,
2013-02-22 12:22:00,36.5,17.7,30.32,North,349,3.0,3.0,46,0.00,,---,0.00,287.00,VWS V14.01,2013-02-22 17:22:00,
2013-02-22 12:27:00,36.4,18.1,30.32,NE,53,0.0,3.0,47,0.00,,---,0.00,772.00,VWS V14.01,2013-02-22 17:27:00,
2013-02-22 12:32:00,37.2,16.2,30.32,North,349,1.0,4.0,42,0.00,,---,0.00,717.00,VWS V14.01,2013-02-22 17:32:00,
2013-02-22 12:37:00,36.9,18.6,30.31,NNE,12,0.0,4.0,47,0.00,,---,0.00,701.00,VWS V14.01,2013-02-22 17:37:00,
2013-02-22 12:42:00,36.1,18.3,30.31,NNW,348,0.0,4.0,48,0.00,,---,0.00,694.00,VWS V14.01,2013-02-22 17:42:00,
2013-02-22 12:47:00,37.1,20.2,30.32,NE,36,0.0,4.0,50,0.00,,---,0.00,703.00,VWS V14.01,2013-02-22 17:47:00,
2013-02-22 12:52:00,37.2,17.3,30.31,NNE,12,0.0,5.0,44,0.00,,---,0.00,675.00,VWS V14.01,2013-02-22 17:52:00,
2013-02-22 12:57:00,37.2,18.8,30.31,NW,315,0.0,5.0,47,0.00,,---,0.00,636.00,VWS V14.01,2013-02-22 17:57:00,
2013-02-22 13:02:00,36.9,17.6,30.31,NNE,29,0.0,0.0,45,0.00,,---,0.00,670.00,VWS V14.01,2013-02-22 18:02:00,
2013-02-22 13:07:00,36.4,17.6,30.31,NE,51,4.0,4.0,46,0.00,,---,0.00,679.00,VWS V14.01,2013-02-22 18:07:00,
2013-02-22 13:12:00,36.1,18.3,30.31,NE,40,1.0,4.0,48,0.00,,---,0.00,707.00,VWS V14.01,2013-02-22 18:12:00,
2013-02-22 13:17:00,36.9,16.0,30.31,ENE,61,1.0,4.0,42,0.00,,---,0.00,513.00,VWS V14.01,2013-02-22 18:17:00,
2013-02-22 13:22:00,36.7,16.3,30.31,NNE,31,0.0,4.0,43,0.00,,---,0.00,547.00,VWS V14.01,2013-02-22 18:22:00,
2013-02-22 13:27:00,36.1,15.8,30.31,East,87,0.0,4.0,43,0.00,,---,0.00,548.00,VWS V14.01,2013-02-22 18:27:00,
2013-02-22 13:32:00,36.2,17.9,30.31,NE,39,3.0,3.0,47,0.00,,---,0.00,352.00,VWS V14.01,2013-02-22 18:32:00,
2013-02-22 13:37:00,36.2,21.2,30.31,NNE,28,0.0,5.0,54,0.00,,---,0.00,529.00,VWS V14.01,2013-02-22 18:37:00,
2013-02-22 13:42:00,35.9,16.1,30.31,NE,36,0.0,5.0,44,0.00,,---,0.00,531.00,VWS V14.01,2013-02-22 18:42:00,
2013-02-22 13:47:00,35.5,17.3,30.31,ENE,75,0.0,0.0,47,0.00,,---,0.00,390.00,VWS V14.01,2013-02-22 18:47:00,
2013-02-22 13:52:00,35.8,19.5,30.31,ENE,74,2.0,2.0,51,0.00,,---,0.00,394.00,VWS V14.01,2013-02-22 18:52:00,
2013-02-22 13:57:00,36.1,16.3,30.31,NNE,13,0.0,4.0,44,0.00,,---,0.00,285.00,VWS V14.01,2013-02-22 18:57:00,
2013-02-22 14:02:00,35.9,19.5,30.31,NNW,347,0.0,0.0,51,0.00,,---,0.00,281.00,VWS V14.01,2013-02-22 19:02:00,
2013-02-22 14:07:00,36.5,17.2,30.30,NNE,32,0.0,3.0,45,0.00,,---,0.00,306.00,VWS V14.01,2013-02-22 19:07:00,
2013-02-22 14:12:00,36.5,16.7,30.30,NNE,32,0.0,3.0,44,0.00,,---,0.00,369.00,VWS V14.01,2013-02-22 19:12:00,
2013-02-22 14:17:00,36.7,16.3,30.29,NE,34,1.0,2.0,43,0.00,,---,0.00,345.00,VWS V14.01,2013-02-22 19:17:00,
2013-02-22 14:22:00,36.8,15.9,30.29,NNE,25,0.0,6.0,42,0.00,,---,0.00,385.00,VWS V14.01,2013-02-22 19:22:00,
2013-02-22 14:27:00,36.8,15.9,30.29,NE,34,1.0,6.0,42,0.00,,---,0.00,329.00,VWS V14.01,2013-02-22 19:27:00,
2013-02-22 14:32:00,36.9,18.1,30.29,NNE,31,2.0,2.0,46,0.00,,---,0.00,306.00,VWS V14.01,2013-02-22 19:32:00,
2013-02-22 14:37:00,36.1,16.3,30.29,NNE,29,0.0,2.0,44,0.00,,---,0.00,327.00,VWS V14.01,2013-02-22 19:37:00,
2013-02-22 14:42:00,35.9,16.1,30.30,ENE,73,0.0,2.0,44,0.00,,---,0.00,311.00,VWS V14.01,2013-02-22 19:42:00,
2013-02-22 14:47:00,35.9,16.1,30.30,SSE,162,0.0,0.0,44,0.00,,---,0.00,221.00,VWS V14.01,2013-02-22 19:47:00,
2013-02-22 14:52:00,36.1,16.3,30.30,SSE,162,0.0,0.0,44,0.00,,---,0.00,202.00,VWS V14.01,2013-02-22 19:52:00,
2013-02-22 14:57:00,36.2,19.8,30.30,SSE,162,0.0,0.0,51,0.00,,---,0.00,200.00,VWS V14.01,2013-02-22 19:57:00,
2013-02-22 15:02:00,36.1,21.5,30.30,WSW,240,0.0,0.0,55,0.00,,---,0.00,174.00,VWS V14.01,2013-02-22 20:02:00,
2013-02-22 15:07:00,36.1,16.3,30.30,WSW,240,0.0,0.0,44,0.00,,---,0.00,171.00,VWS V14.01,2013-02-22 20:07:00,
2013-02-22 15:12:00,36.4,18.6,30.30,WSW,241,0.0,2.0,48,0.00,,---,0.00,160.00,VWS V14.01,2013-02-22 20:12:00,
2013-02-22 15:17:00,36.4,17.6,30.30,WSW,241,0.0,0.0,46,0.00,,---,0.00,160.00,VWS V14.01,2013-02-22 20:17:00,
2013-02-22 15:22:00,36.5,16.7,30.30,East,82,0.0,2.0,44,0.00,,---,0.00,158.00,VWS V14.01,2013-02-22 20:22:00,
2013-02-22 15:27:00,36.2,21.6,30.30,NE,49,1.0,4.0,55,0.00,,---,0.00,148.00,VWS V14.01,2013-02-22 20:27:00,
2013-02-22 15:32:00,36.4,17.6,30.30,NE,34,3.0,4.0,46,0.00,,---,0.00,139.00,VWS V14.01,2013-02-22 20:32:00,
2013-02-22 15:37:00,36.2,18.4,30.30,NE,41,0.0,4.0,48,0.00,,---,0.00,139.00,VWS V14.01,2013-02-22 20:37:00,
2013-02-22 15:42:00,36.1,21.1,30.30,NE,42,0.0,4.0,54,0.00,,---,0.00,125.00,VWS V14.01,2013-02-22 20:42:00,
2013-02-22 15:47:00,35.9,16.1,30.30,NE,41,0.0,0.0,44,0.00,,---,0.00,107.00,VWS V14.01,2013-02-22 20:47:00,
2013-02-22 15:52:00,35.8,19.9,30.30,NE,41,0.0,0.0,52,0.00,,---,0.00,105.00,VWS V14.01,2013-02-22 20:52:00,
2013-02-22 15:57:00,35.7,18.9,30.30,NE,42,0.0,0.0,50,0.00,,---,0.00,104.00,VWS V14.01,2013-02-22 20:57:00,
2013-02-22 16:02:00,35.9,17.6,30.29,NE,42,0.0,0.0,47,0.00,,---,0.00,95.00,VWS V14.01,2013-02-22 21:02:00,
2013-02-22 16:07:00,35.9,19.5,30.29,NE,42,0.0,0.0,51,0.00,,---,0.00,79.00,VWS V14.01,2013-02-22 21:07:00,
2013-02-22 16:12:00,35.8,17.6,30.29,NE,42,0.0,2.0,47,0.00,,---,0.00,53.00,VWS V14.01,2013-02-22 21:12:00,
2013-02-22 16:17:00,35.5,17.8,30.28,NE,44,0.0,3.0,48,0.00,,---,0.00,35.00,VWS V14.01,2013-02-22 21:17:00,
2013-02-22 16:22:00,35.2,18.4,30.27,NE,46,0.0,3.0,50,0.00,,---,0.00,32.00,VWS V14.01,2013-02-22 21:22:00,
2013-02-22 16:27:00,34.6,20.5,30.27,NE,46,0.0,3.0,56,0.00,,---,0.00,32.00,VWS V14.01,2013-02-22 21:27:00,
2013-02-22 16:32:00,34.5,16.9,30.28,NE,46,0.0,0.0,48,0.00,,---,0.00,33.00,VWS V14.01,2013-02-22 21:32:00,
2013-02-22 16:37:00,34.6,17.4,30.28,NE,46,0.0,0.0,49,0.00,,---,0.00,37.00,VWS V14.01,2013-02-22 21:37:00,
2013-02-22 16:42:00,34.2,20.6,30.28,NE,46,0.0,0.0,57,0.00,,---,0.00,33.00,VWS V14.01,2013-02-22 21:42:00,
2013-02-22 16:47:00,33.6,20.8,30.28,NE,46,0.0,0.0,59,0.00,,---,0.00,33.00,VWS V14.01,2013-02-22 21:47:00,
2013-02-22 16:52:00,33.3,20.1,30.27,NE,46,0.0,0.0,58,0.00,,---,0.00,30.00,VWS V14.01,2013-02-22 21:52:00,
2013-02-22 16:57:00,33.3,19.7,30.27,NE,46,0.0,0.0,57,0.00,,---,0.00,25.00,VWS V14.01,2013-02-22 21:57:00,
2013-02-22 17:03:00,33.0,21.4,30.27,NE,46,0.0,0.0,62,0.00,,---,0.00,18.00,VWS V14.01,2013-02-22 22:03:00,
2013-02-22 17:08:00,32.7,20.0,30.27,NE,46,0.0,0.0,59,0.00,,---,0.00,14.00,VWS V14.01,2013-02-22 22:08:00,
2013-02-22 17:13:00,33.0,19.9,30.28,NE,46,0.0,0.0,58,0.00,,---,0.00,11.00,VWS V14.01,2013-02-22 22:13:00,
2013-02-22 17:18:00,32.7,20.4,30.28,NE,46,0.0,0.0,60,0.00,,---,0.00,7.00,VWS V14.01,2013-02-22 22:18:00,
2013-02-22 17:23:00,32.1,19.8,30.28,NE,46,0.0,0.0,60,0.00,,---,0.00,5.00,VWS V14.01,2013-02-22 22:23:00,
2013-02-22 17:28:00,31.5,20.4,30.28,NE,46,0.0,0.0,63,0.00,,---,0.00,0.00,VWS V14.01,2013-02-22 22:28:00,
2013-02-22 17:33:00,31.1,19.2,30.28,NE,46,0.0,0.0,61,0.00,,---,0.00,0.00,VWS V14.01,2013-02-22 22:33:00,
2013-02-22 17:38:00,30.9,17.9,30.28,NE,46,0.0,0.0,58,0.00,,---,0.00,0.00,VWS V14.01,2013-02-22 22:38:00,
2013-02-22 17:43:00,30.6,18.8,30.28,NE,46,0.0,0.0,61,0.00,,---,0.00,0.00,VWS V14.01,2013-02-22 22:43:00,
2013-02-22 17:48:00,30.3,18.9,30.28,NE,46,0.0,0.0,62,0.00,,---,0.00,0.00,VWS V14.01,2013-02-22 22:48:00,
2013-02-22 17:53:00,30.2,20.6,30.28,NE,46,0.0,0.0,67,0.00,,---,0.00,0.00,VWS V14.01,2013-02-22 22:53:00,
2013-02-22 17:58:00,29.9,20.3,30.28,NE,46,0.0,0.0,67,0.00,,---,0.00,0.00,VWS V14.01,2013-02-22 22:58:00,
2013-02-22 18:03:00,29.7,19.8,30.27,NE,46,0.0,0.0,66,0.00,,---,0.00,0.00,VWS V14.01,2013-02-22 23:03:00,
2013-02-22 18:08:00,29.7,19.4,30.28,NE,46,0.0,0.0,65,0.00,,---,0.00,0.00,VWS V14.01,2013-02-22 23:08:00,
2013-02-22 18:13:00,29.7,18.7,30.28,NE,46,0.0,0.0,63,0.00,,---,0.00,0.00,VWS V14.01,2013-02-22 23:13:00,
2013-02-22 18:18:00,29.6,19.6,30.29,NE,46,0.0,0.0,66,0.00,,---,0.00,0.00,VWS V14.01,2013-02-22 23:18:00,
2013-02-22 18:23:00,29.4,19.5,30.29,NE,46,0.0,0.0,66,0.00,,---,0.00,0.00,VWS V14.01,2013-02-22 23:23:00,
2013-02-22 18:28:00,29.4,19.8,30.29,NE,46,0.0,0.0,67,0.00,,---,0.00,0.00,VWS V14.01,2013-02-22 23:28:00,
2013-02-22 18:33:00,29.3,19.0,30.28,NE,46,0.0,0.0,65,0.00,,---,0.00,0.00,VWS V14.01,2013-02-22 23:33:00,
2013-02-22 18:38:00,29.4,20.2,30.28,NE,46,0.0,0.0,68,0.00,,---,0.00,0.00,VWS V14.01,2013-02-22 23:38:00,
2013-02-22 18:43:00,29.4,20.2,30.28,NE,46,0.0,0.0,68,0.00,,---,0.00,0.00,VWS V14.01,2013-02-22 23:43:00,
2013-02-22 18:48:00,29.4,19.8,30.29,NE,53,2.0,2.0,67,0.00,,---,0.00,0.00,VWS V14.01,2013-02-22 23:48:00,
2013-02-22 18:53:00,29.6,19.6,30.29,East,89,0.0,2.0,66,0.00,,---,0.00,0.00,VWS V14.01,2013-02-22 23:53:00,
2013-02-22 18:58:00,30.0,19.0,30.29,East,89,0.0,2.0,63,0.00,,---,0.00,0.00,VWS V14.01,2013-02-22 23:58:00,
2013-02-22 19:03:00,30.0,19.3,30.29,East,89,0.0,0.0,64,0.00,,---,0.00,0.00,VWS V14.01,2013-02-23 00:03:00,
2013-02-22 19:08:00,30.3,19.2,30.30,East,92,2.0,2.0,63,0.00,,---,0.00,0.00,VWS V14.01,2013-02-23 00:08:00,
2013-02-22 19:13:00,31.4,17.1,30.30,South,178,1.0,6.0,55,0.00,,---,0.00,0.00,VWS V14.01,2013-02-23 00:13:00,
2013-02-22 19:18:00,32.1,17.8,30.30,SE,126,6.0,6.0,55,0.00,,---,0.00,0.00,VWS V14.01,2013-02-23 00:18:00,
2013-02-22 19:23:00,32.3,18.0,30.30,ESE,113,4.0,6.0,55,0.00,,---,0.00,0.00,VWS V14.01,2013-02-23 00:23:00,
2013-02-22 19:28:00,32.1,18.6,30.30,SSE,150,0.0,6.0,57,0.00,,---,0.00,0.00,VWS V14.01,2013-02-23 00:28:00,
2013-02-22 19:33:00,31.8,18.3,30.30,SSE,153,0.0,4.0,57,0.00,,---,0.00,0.00,VWS V14.01,2013-02-23 00:33:00,
2013-02-22 19:38:00,31.7,18.6,30.30,SSE,167,0.0,6.0,58,0.00,,---,0.00,0.00,VWS V14.01,2013-02-23 00:38:00,
2013-02-22 19:43:00,31.5,18.8,30.30,SSE,150,5.0,6.0,59,0.00,,---,0.00,0.00,VWS V14.01,2013-02-23 00:43:00,
2013-02-22 19:48:00,31.4,18.7,30.30,South,172,5.0,5.0,59,0.00,,---,0.00,0.00,VWS V14.01,2013-02-23 00:48:00,
2013-02-22 19:53:00,31.4,19.1,30.30,SE,138,0.0,5.0,60,0.00,,---,0.00,0.00,VWS V14.01,2013-02-23 00:53:00,
2013-02-22 19:58:00,31.2,19.3,30.30,SSE,161,0.0,5.0,61,0.00,,---,0.00,0.00,VWS V14.01,2013-02-23 00:58:00,
2013-02-22 20:03:00,31.1,19.6,30.30,SE,138,1.0,4.0,62,0.00,,---,0.00,0.00,VWS V14.01,2013-02-23 01:03:00,
2013-02-22 20:08:00,30.9,19.4,30.30,SSE,148,2.0,5.0,62,0.00,,---,0.00,0.00,VWS V14.01,2013-02-23 01:08:00,
2013-02-22 20:13:00,30.9,19.8,30.30,SSE,167,7.0,7.0,63,0.00,,---,0.00,0.00,VWS V14.01,2013-02-23 01:13:00,
2013-02-22 20:18:00,30.8,19.7,30.31,SSE,150,1.0,4.0,63,0.00,,---,0.00,0.00,VWS V14.01,2013-02-23 01:18:00,
2013-02-22 20:23:00,30.8,19.7,30.31,SE,142,0.0,6.0,63,0.00,,---,0.00,0.00,VWS V14.01,2013-02-23 01:23:00,
2013-02-22 20:28:00,30.6,20.2,30.31,SE,142,0.0,6.0,65,0.00,,---,0.00,0.00,VWS V14.01,2013-02-23 01:28:00,
2013-02-22 20:33:00,30.5,20.1,30.31,SE,140,2.0,4.0,65,0.00,,---,0.00,0.00,VWS V14.01,2013-02-23 01:33:00,
2013-02-22 20:38:00,30.5,20.1,30.30,ESE,116,4.0,4.0,65,0.00,,---,0.00,0.00,VWS V14.01,2013-02-23 01:38:00,
2013-02-22 20:43:00,30.5,20.1,30.30,ESE,115,2.0,4.0,65,0.00,,---,0.00,0.00,VWS V14.01,2013-02-23 01:43:00,
2013-02-22 20:48:00,30.5,20.1,30.30,SE,136,2.0,4.0,65,0.00,,---,0.00,0.00,VWS V14.01,2013-02-23 01:48:00,
2013-02-22 20:53:00,30.5,20.1,30.30,SE,128,0.0,4.0,65,0.00,,---,0.00,0.00,VWS V14.01,2013-02-23 01:53:00,
2013-02-22 20:58:00,30.5,20.1,30.30,SE,137,2.0,6.0,65,0.00,,---,0.00,0.00,VWS V14.01,2013-02-23 01:58:00,
2013-02-22 21:03:00,30.3,20.0,30.30,ESE,120,0.0,4.0,65,0.00,,---,0.00,0.00,VWS V14.01,2013-02-23 02:03:00,
2013-02-22 21:08:00,30.3,20.3,30.30,SE,133,2.0,5.0,66,0.00,,---,0.00,0.00,VWS V14.01,2013-02-23 02:08:00,
2013-02-22 21:13:00,30.3,20.3,30.30,South,180,0.0,5.0,66,0.00,,---,0.00,0.00,VWS V14.01,2013-02-23 02:13:00,
2013-02-22 21:19:00,30.3,20.3,30.30,SSE,157,1.0,5.0,66,0.00,,---,0.00,0.00,VWS V14.01,2013-02-23 02:19:00,
2013-02-22 21:24:00,30.3,20.3,30.30,SSE,166,1.0,5.0,66,0.00,,---,0.00,0.00,VWS V14.01,2013-02-23 02:24:00,
2013-02-22 21:29:00,30.3,20.7,30.30,SE,131,4.0,5.0,67,0.00,,---,0.00,0.00,VWS V14.01,2013-02-23 02:29:00,
2013-02-22 21:34:00,30.2,20.6,30.30,SSE,150,7.0,7.0,67,0.00,,---,0.00,0.00,VWS V14.01,2013-02-23 02:34:00,
2013-02-22 21:39:00,30.2,20.6,30.30,SE,138,0.0,7.0,67,0.00,,---,0.00,0.00,VWS V14.01,2013-02-23 02:39:00,
2013-02-22 21:43:00,30.2,20.9,30.30,SE,130,2.0,7.0,68,0.00,,---,0.00,0.00,VWS V14.01,2013-02-23 02:43:00,
2013-02-22 21:49:00,30.0,20.7,30.30,ESE,106,2.0,4.0,68,0.00,,---,0.00,0.00,VWS V14.01,2013-02-23 02:49:00,
2013-02-22 21:54:00,30.0,20.7,30.30,ESE,117,0.0,9.0,68,0.00,,---,0.00,0.00,VWS V14.01,2013-02-23 02:54:00,
2013-02-22 21:59:00,30.0,20.7,30.29,ESE,119,4.0,9.0,68,0.00,,---,0.00,0.00,VWS V14.01,2013-02-23 02:59:00,
2013-02-22 22:04:00,30.0,20.7,30.30,SE,139,2.0,2.0,68,0.00,,---,0.00,0.00,VWS V14.01,2013-02-23 03:04:00,
2013-02-22 22:09:00,30.0,20.7,30.29,SE,132,0.0,6.0,68,0.00,,---,0.00,0.00,VWS V14.01,2013-02-23 03:09:00,
2013-02-22 22:14:00,30.0,21.1,30.29,SE,134,4.0,6.0,69,0.00,,---,0.00,0.00,VWS V14.01,2013-02-23 03:14:00,
2013-02-22 22:19:00,30.0,21.1,30.29,SSE,154,2.0,2.0,69,0.00,,---,0.00,0.00,VWS V14.01,2013-02-23 03:19:00,
2013-02-22 22:24:00,29.9,21.0,30.29,SE,130,2.0,5.0,69,0.00,,---,0.00,0.00,VWS V14.01,2013-02-23 03:24:00,
2013-02-22 22:29:00,29.9,21.0,30.29,SE,128,1.0,5.0,69,0.00,,---,0.00,0.00,VWS V14.01,2013-02-23 03:29:00,
2013-02-22 22:34:00,29.9,21.0,30.29,SE,130,5.0,5.0,69,0.00,,---,0.00,0.00,VWS V14.01,2013-02-23 03:34:00,
2013-02-22 22:39:00,29.9,21.0,30.29,ESE,113,2.0,6.0,69,0.00,,---,0.00,0.00,VWS V14.01,2013-02-23 03:39:00,
2013-02-22 22:44:00,29.9,21.0,30.29,SE,131,2.0,6.0,69,0.00,,---,0.00,0.00,VWS V14.01,2013-02-23 03:44:00,
2013-02-22 22:49:00,29.9,21.0,30.29,SSE,148,6.0,6.0,69,0.00,,---,0.00,0.00,VWS V14.01,2013-02-23 03:49:00,
2013-02-22 22:54:00,29.9,21.0,30.29,SE,137,0.0,6.0,69,0.00,,---,0.00,0.00,VWS V14.01,2013-02-23 03:54:00,
2013-02-22 22:59:00,29.9,21.0,30.29,SE,132,1.0,6.0,69,0.00,,---,0.00,0.00,VWS V14.01,2013-02-23 03:59:00,
2013-02-22 23:04:00,29.9,21.3,30.29,ESE,112,1.0,2.0,70,0.00,,---,0.00,0.00,VWS V14.01,2013-02-23 04:04:00,
2013-02-22 23:09:00,29.9,21.3,30.29,SE,132,0.0,5.0,70,0.00,,---,0.00,0.00,VWS V14.01,2013-02-23 04:09:00,
2013-02-22 23:14:00,29.9,21.3,30.28,SE,138,1.0,5.0,70,0.00,,---,0.00,0.00,VWS V14.01,2013-02-23 04:14:00,
2013-02-22 23:19:00,29.9,21.3,30.29,SSE,147,0.0,4.0,70,0.00,,---,0.00,0.00,VWS V14.01,2013-02-23 04:19:00,
2013-02-22 23:24:00,29.7,21.5,30.29,SE,143,1.0,4.0,71,0.00,,---,0.00,0.00,VWS V14.01,2013-02-23 04:24:00,
2013-02-22 23:29:00,29.9,21.3,30.29,SE,135,1.0,4.0,70,0.00,,---,0.00,0.00,VWS V14.01,2013-02-23 04:29:00,
2013-02-22 23:34:00,29.7,21.5,30.29,SE,144,1.0,4.0,71,0.00,,---,0.00,0.00,VWS V14.01,2013-02-23 04:34:00,
2013-02-22 23:39:00,29.7,21.5,30.29,SE,138,4.0,4.0,71,0.00,,---,0.00,0.00,VWS V14.01,2013-02-23 04:39:00,
2013-02-22 23:44:00,29.7,21.5,30.29,SSE,156,1.0,4.0,71,0.00,,---,0.00,0.00,VWS V14.01,2013-02-23 04:44:00,
2013-02-22 23:49:00,29.7,21.8,30.29,SE,138,1.0,4.0,72,0.00,,---,0.00,0.00,VWS V14.01,2013-02-23 04:49:00,
2013-02-22 23:54:00,29.7,21.5,30.29,SSE,155,0.0,4.0,71,0.00,,---,0.00,0.00,VWS V14.01,2013-02-23 04:54:00,
2013-02-22 23:59:00,29.7,21.8,30.29,SE,142,1.0,4.0,72,0.00,,---,0.00,0.00,VWS V14.01,2013-02-23 04:59:00,